Wind_Speed
13 8 2 2 2 10 14 19 22 26 30 28 24 21 17 14 13 13 13 13 16 15 14 13 10 11 9 8 9 8 8 5 2
15 13 6 4 4 0 9 17 21 23 24 29 25 22 17 14 14 13 13 11 17 16 14 13 11 12 12 10 9 10 9 8 5
12 11 9 3 5 6 5 16 14 18 20 26 25 20 18 14 12 10 11 14 16 15 14 14 12 14 14 13 11 10 10 9 8
9 9 9 9 9 8 8 8 11 18 21 24 22 19 18 15 10 10 8 6 16 16 13 14 15 15 13 14 13 10 11 10 9
4 5 4 4 2 14 16 10 13 20 21 20 19 17 14 10 10 10 11 9 7 10 12 13 15 12 12 12 15 13 12 11 10
6 6 5 4 7 5 13 15 11 12 18 22 19 15 10 4 1 6 12 13 13 12 12 9 10 10 8 13 13 14 14 12 11
8 6 5 3 5 9 12 20 19 17 17 20 16 12 11 9 7 5 7 13 14 14 13 12 10 9 9 9 12 13 13 12 12
8 6 5 3 1 6 17 18 19 16 16 16 13 3 10 8 8 6 3 5 10 12 12 13 14 12 10 10 10 12 15 15 14
10 8 7 6 5 7 12 16 20 21 23 22 11 9 7 9 6 6 7 6 7 8 7 7 9 10 12 12 10 12 12 12 14
11 10 10 9 9 13 18 22 19 19 21 17 13 11 11 10 8 7 8 8 8 10 7 6 5 4 2 3 4 7 13 14 15
11 10 11 12 15 18 22 27 28 28 26 26 24 21 18 14 14 14 13 12 11 12 9 9 7 7 6 4 2 3 3 4 9
7 7 12 16 21 22 26 28 26 28 25 23 24 20 19 16 14 15 14 14 13 14 9 12 10 9 10 8 7 6 6 5 6
13 17 19 16 23 25 27 24 26 26 22 21 20 17 16 15 14 13 12 12 12 11 10 13 12 12 13 15 15 11 11 9 7
13 14 20 26 24 26 23 22 22 23 20 18 15 14 15 15 14 15 14 13 13 13 14 13 14 12 9 10 12 10 12 13 11
16 18 20 23 25 22 19 18 19 20 19 13 12 13 15 15 14 15 15 15 15 15 15 15 16 15 15 13 8 8 9 9 9
15 18 20 21 24 21 16 15 14 18 14 11 12 13 14 15 14 16 16 16 15 16 16 16 17 16 16 17 15 13 11 11 12
13 17 22 24 23 20 17 15 15 15 13 12 13 15 15 14 15 14 14 14 15 15 16 16 16 16 17 17 17 18 17 16 13
15 17 21 22 21 19 17 15 14 13 12 10 14 14 14 14 14 15 15 15 14 15 15 13 13 13 13 15 16 18 17 17 17
23 23 24 20 18 18 17 14 13 12 10 9 12 14 14 13 13 13 12 12 12 12 12 10 10 10 10 9 10 12 14 15 15
23 24 26 24 21 17 17 14 12 9 9 9 11 13 12 12 11 12 13 13 14 14 12 11 12 12 12 12 12 14 14 14 15
Wind_Direction
168 178 197 160 131 198 206 209 208 212 206 202 200 199 203 213 218 209 219 218 205 203 205 208 207 210 210 228 223 220 220 220 223
167 180 207 174 206 271 205 208 212 211 214 207 204 201 203 213 213 219 218 228 215 212 212 218 218 219 217 220 220 222 218 221 236
172 178 195 188 208 217 227 217 209 214 221 215 208 209 209 214 219 222 216 231 212 215 216 216 222 224 225 224 222 223 219 220 229
163 169 193 215 217 210 230 248 230 209 218 220 204 208 210 214 220 231 237 259 219 216 219 221 229 225 228 229 228 227 221 224 224
131 126 144 146 164 209 193 204 205 198 210 202 201 195 198 209 217 229 241 245 248 229 229 239 235 236 234 248 231 232 229 224 231
145 131 134 152 172 156 170 172 181 160 155 136 121 122 124 116 229 249 246 242 236 244 255 267 251 236 236 236 225 233 235 238 236
131 128 134 146 159 142 146 136 141 142 133 132 115 85 75 50 7 326 268 251 240 231 239 245 248 246 260 250 236 239 235 245 253
122 120 128 127 108 135 129 120 117 153 168 158 161 110 54 45 43 4 320 232 224 222 220 226 231 233 247 264 267 255 256 251 256
126 119 115 116 109 86 100 113 128 119 138 122 151 165 55 54 64 75 75 93 131 159 163 193 212 222 235 243 256 260 258 256 260
133 120 111 92 83 96 104 108 108 102 119 137 122 109 92 83 90 101 83 80 101 112 120 116 102 113 162 176 225 268 261 256 261
125 124 116 105 98 88 87 97 101 104 102 108 108 101 97 97 87 82 87 85 74 76 87 94 92 81 80 88 86 23 11 329 266
106 109 106 111 110 106 103 105 107 104 100 99 99 95 97 95 90 86 86 80 71 71 62 77 75 76 72 56 57 41 22 360 332
122 123 117 114 117 116 115 118 120 114 104 99 93 91 86 90 86 81 76 75 72 74 71 66 67 71 73 78 67 51 50 44 29
129 127 124 131 124 118 120 122 116 103 98 87 89 90 89 86 88 83 80 80 74 71 71 77 70 72 82 82 80 69 39 28 37
126 125 128 127 117 112 113 111 106 98 85 87 94 95 91 86 81 80 79 79 75 70 68 66 66 63 62 62 56 45 22 18 6
128 134 134 132 123 115 105 102 103 101 93 93 92 88 81 78 78 76 73 73 70 67 61 56 51 49 45 39 37 36 19 17 7
132 143 142 141 133 124 114 109 103 99 103 100 95 88 80 78 74 70 66 65 59 56 51 47 42 36 29 24 25 18 13 10 358
162 156 153 152 144 138 132 128 116 110 107 107 100 95 88 79 72 67 65 61 60 58 55 47 44 36 28 23 20 10 4 0 355
160 167 166 162 155 147 144 138 126 117 109 109 109 102 95 85 79 73 66 64 67 62 64 69 57 47 30 24 14 350 342 330 334
170 171 172 173 171 164 157 150 140 127 115 113 108 104 101 91 76 63 57 53 49 43 51 51 38 31 27 22 360 354 353 347 332
Height
809 818 820 821 823 824 827 832 837 841 843 847 851 853 856 859 860 863 865 867 869 870 873 875 877 880 881 883 885 887 887 888 889
810 814 818 819 823 824 826 830 833 838 843 846 850 853 855 858 861 862 864 866 868 870 871 874 876 878 880 882 884 885 886 888 888
809 813 817 818 822 824 825 829 831 836 841 845 849 852 854 856 859 861 863 865 867 869 870 872 874 876 878 880 882 883 884 886 887
811 811 812 816 819 821 823 825 828 833 837 842 846 850 853 855 857 860 862 863 865 868 869 870 871 873 875 878 879 881 883 884 885
813 814 816 818 820 821 821 825 829 832 834 839 844 849 852 854 855 857 860 861 863 866 868 869 869 870 872 875 877 879 880 882 883
814 818 818 817 819 820 820 826 827 834 835 839 844 848 850 853 854 855 857 859 861 863 865 866 868 868 869 872 874 876 878 878 880
814 818 820 820 820 819 821 824 831 836 837 840 844 847 847 851 852 852 854 856 858 860 862 865 867 868 869 870 871 873 875 877 878
815 819 820 820 819 818 820 819 824 833 839 837 839 846 847 851 851 853 853 853 855 857 859 862 864 866 868 868 869 871 872 874 875
816 821 822 822 823 822 821 823 827 828 836 838 840 842 842 848 851 855 854 856 855 855 857 860 861 863 864 865 867 868 868 870 871
817 821 825 826 826 826 824 827 832 834 835 838 837 842 847 852 855 857 857 857 858 856 858 860 860 861 861 862 864 865 865 866 868
819 824 826 827 829 830 831 831 835 839 843 844 846 851 854 856 856 856 857 859 860 858 859 857 860 860 861 861 863 863 863 863 864
824 827 829 831 834 837 838 840 843 844 849 852 853 857 858 859 859 859 860 860 858 858 862 858 859 859 859 862 862 862 862 862 861
826 830 833 836 837 841 844 849 850 852 856 856 857 859 859 859 860 860 861 861 861 861 862 859 859 860 860 860 860 863 861 861 860
830 832 833 838 842 843 848 851 851 854 856 858 859 859 860 861 860 861 861 860 860 860 861 860 861 860 863 861 859 863 864 864 860
830 834 838 840 842 846 850 851 851 854 857 860 861 860 862 862 863 861 860 859 861 860 859 862 861 863 863 862 862 859 860 859 860
834 837 839 842 843 847 850 852 853 855 860 860 859 860 861 862 862 861 861 861 862 862 863 864 863 863 863 864 863 860 859 858 858
837 840 842 845 847 850 852 853 854 856 859 860 860 860 861 863 862 862 862 862 863 863 864 865 865 866 864 864 864 862 859 858 860
837 841 844 846 847 850 853 856 857 858 859 860 861 862 863 864 864 864 864 865 866 867 868 868 868 868 867 865 865 866 865 862 861
831 837 841 845 848 850 852 855 857 858 859 861 862 862 864 865 867 868 869 869 868 868 868 870 870 869 870 867 868 867 865 863 861
832 836 838 841 844 847 850 852 855 857 858 860 861 862 863 865 866 867 867 868 868 868 869 868 868 869 868 866 867 864 862 861 859